Regional Weather Roundup
Issued by NWS

Home | Current Version | Previous Version | Graphics & Text | Print | Product List | Glossary On
Versions: 1 2 3 4 5 6 7 8 9 10 11 12 13 14 15 16 17 18 19 20 21 22 23 24 25 26 27 28 29 30 31 32 33 34 35 36 37 38 39 40 41 42 43 44 45 46 47 48 49 50
000
ASUS43 KIND 101609
RWRIN

WEATHER ROUNDUP FOR INDIANA
NATIONAL WEATHER SERVICE INDIANAPOLIS IN
1200 PM EDT THU JUL 10 2014

NOTE: "FAIR" INDICATES FEW OR NO CLOUDS BELOW 12,000 FEET WITH NO
SIGNIFICANT WEATHER AND/OR OBSTRUCTIONS TO VISIBILITY.

* - STATION DOES NOT REPORT WEATHER SUCH AS PRECIPITATION OR FOG.

+ - STATION NOT QUALITY CONTROLLED BY THE NATIONAL WEATHER SERVICE.
    USE DATA WITH CAUTION...ESPECIALLY DEWPOINT AND RELATIVE
    HUMIDITY OBSERVATIONS.

INZ001>003-010>013-019-020-101700-
NORTHWEST INDIANA

CITY           SKY/WX    TMP DP  RH WIND       PRES   REMARKS
GARY /AIRPORT/ MOSUNNY   73  57  56 NE9         N/A
KNOX *+        SUNNY     72  54  53 NE3       30.18S
LA PORTE +     MOSUNNY   69  53  56 NW12      30.20R
MICHIGAN CITY+ SUNNY     72  48  43 N6        30.20R
MONTICELLO +   SUNNY     73  55  54 CALM      30.18R
RENSSELAER +   SUNNY     72  52  49 CALM      30.19S
VALPARAISO     MOSUNNY   74  58  57 VRB5      30.20R

$$

LMZ046-743>745-101700-
SOUTHERN LAKE MICHIGAN

STATION/POSITION TIME  TEMP WIND        PRES
                       AIR  DIR/SP/G
                 (UTC) (F)  (DEG/KT/KT) (MB)
MICHIGAN CITY    1600   68   10/  6/  7   N/A

$$

INZ004-005-014>016-021>024-101700-
NORTH CENTRAL INDIANA

CITY           SKY/WX    TMP DP  RH WIND       PRES   REMARKS
ELKHART        SUNNY     72  50  46 N5        30.20R
GOSHEN         SUNNY     71  52  50 N7        30.19R
LOGANSPORT +   SUNNY     72  50  46 N7        30.19S
PERU/GRISSOM   SUNNY     73  56  55 NE7       30.19R
ROCHESTER +    SUNNY     73  52  46 NE5       30.19S
SOUTH BEND     MOSUNNY   72  53  51 VRB6      30.20R
WARSAW +       SUNNY     70  52  52 CALM      30.19S

$$

INZ006>009-017-018-025>027-101700-
NORTHEAST INDIANA

CITY           SKY/WX    TMP DP  RH WIND       PRES   REMARKS
ANGOLA *+      SUNNY     72  54  53 NW8       30.18R
AUBURN +       SUNNY     72  46  40 N8        30.20R
FORT WAYNE     MOSUNNY   74  52  46 N8        30.18R
HUNTINGTON +   SUNNY     72  53  51 NE7       30.18R

$$

INZ028-029-035-036-043>045-051>053-101700-
WEST CENTRAL INDIANA

CITY           SKY/WX    TMP DP  RH WIND       PRES   REMARKS
GREENCASTLE +  SUNNY     73  57  56 N9        30.18R
LAFAYETTE      SUNNY     74  51  44 NE8       30.18R
TERRE HAUTE    MOSUNNY   77  59  53 N9        30.16R

$$

INZ030>032-037>040-046>048-054>057-064-065-101700-
CENTRAL INDIANA

CITY           SKY/WX    TMP DP  RH WIND       PRES   REMARKS
ANDERSON       MOSUNNY   72  55  56 N12       30.19R
CP ATTERBURY + MOSUNNY   77  59  53 N3        30.16S
INDIANAPOLIS   MOSUNNY   75  56  51 N6        30.16R
-EAGLE CREEK   SUNNY     74  54  49 VRB6      30.17R
KOKOMO *+      SUNNY     73  54  49 NE8       30.18S
MARION +       SUNNY     72  52  48 N8        30.19R
MT COMFORT *+  SUNNY     73  59  60 NE5       30.18R
SHELBYVILLE    MOSUNNY   77  60  55 N6        30.16R
ZIONSVILLE +     N/A     73  54  50 N6        30.19R HAZE

$$

INZ033-034-041-042-049-050-058-059-101700-
EAST CENTRAL INDIANA

CITY           SKY/WX    TMP DP  RH WIND       PRES   REMARKS
MUNCIE         SUNNY     73  55  53 N7        30.18R

$$

INZ060-061-067>069-081>083-085>088-101700-
SOUTHWEST INDIANA

CITY           SKY/WX    TMP DP  RH WIND       PRES   REMARKS
EVANSVILLE     SUNNY     80  57  45 NE8       30.13S
HUNTINGBURG *+ MOSUNNY   81  61  50 NE5       30.14S
WASHINGTON +   SUNNY     78  58  50 N5        30.14R

$$

INZ062-063-066-070>080-084-089>092-101700-
SOUTH CENTRAL AND SOUTHEAST INDIANA

CITY           SKY/WX    TMP DP  RH WIND       PRES   REMARKS
BLOOMINGTON    SUNNY     77  59  53 N6        30.16R
SEYMOUR +      SUNNY     73  45  35 N3        30.14R

$$



USA.gov is the U.S. government's official web portal to all federal, state and local government web resources and services.